Location: Newark
(12.0500°N, 61.7500°W)
Time: 06:43:16
(UTC+00:00)

Envisat - Pass Details

Date: 27 January 2020
Orbit: 764 x 766 km, 98.1° (Epoch: 27 February)

Event Time Altitude Azimuth Distance (km) Brightness Sun altitude
Rises 10:06:42 0° 22° (NNE) 3,219 6.3 -6.8°
Reaches altitude 10° 10:09:05 10° 28° (NNE) 2,294 5.6 -6.3°
Maximum altitude 10:13:56 46° 101° (E) 1,011 4.3 -5.1°
Drops below altitude 10° 10:18:46 10° 174° (S) 2,293 5.8 -4.0°
Sets 10:21:08 0° 180° (S) 3,218 6.5 -3.5°
